[[{"header":{"parameterUnit":"m.s-1","parameterCategory":1,"la1":30.2991,"la2":30.254,"lo1":-89.0895,"lo2":-89.0444,"dy":0.0017,"dx":0.0017,"nx":28,"ny":28,"refTime":"2024-04-04T09:00:00:Z","depth":0,"parameterNumber":2,"parameterNumberName":"U-component_of_WINDS"},"data":[0,0,0,0,0,0,0,0,0,0,0,0,0,0,0,0,0,0,0,0,0,0,0,0,0,0,0,0,0,0,0,0,0,0,0,0,0,0,0,0,0,0,0,0,0,0,0,0,0,0,0,0,0,0,0,0,0,0,3.2128,3.2129,0,3.2248,3.2249,3.225,3.224,3.2238,3.2236,3.2235,3.2357,3.2362,3.2367,0,0,0,0,0,0,0,0,0,0,0,0,0,3.1891,3.1895,3.2128,3.2129,3.2131,3.2247,3.2249,3.2251,3.224,3.2238,3.2236,3.2234,3.2355,3.2361,3.2367,0,0,0,0,0,0,0,0,0,0,0,0,0,3.2,3.1897,3.2128,3.214,3.2142,3.2247,3.2249,3.2251,3.2241,3.2238,3.2235,3.2233,3.2354,3.2361,3.2368,3.2469,0,0,3.2391,3.2394,0,0,0,0,0,0,0,0,3.1994,3.2009,3.2137,3.2139,3.2142,3.2226,3.221,3.2324,3.2242,3.2203,3.2235,3.2232,3.2316,3.2326,3.2355,3.2474,3.248,3.2391,3.2396,3.2399,3.2401,0,0,0,0,0,0,0,3.1987,3.2004,3.2175,3.2138,3.2142,3.2139,3.2152,3.2232,3.2273,3.2207,3.2206,3.222,3.2317,3.2347,3.2357,3.2481,3.2391,3.2398,3.2402,3.2405,3.269,3.2693,0,0,0,0,0,0,3.1976,3.1998,3.2171,3.2179,3.206,3.2146,3.216,3.2202,3.2273,3.2281,3.2223,3.2219,3.2336,3.2349,3.2362,3.2484,3.2399,3.2406,3.241,3.2687,3.2691,3.2694,0,0,0,0,0,0,3.1971,3.1992,3.2167,3.2088,3.211,3.2153,3.22,3.2206,3.2236,3.2285,3.2292,3.2246,3.2334,3.2351,3.2442,3.2488,3.2409,3.2416,3.2683,3.2688,3.2692,3.2729,0,0,0,0,0,0,3.1964,3.199,3.2029,3.2089,3.2115,3.2245,3.2203,3.221,3.2249,3.2246,3.2309,3.2317,3.2334,3.2431,3.245,3.2497,3.2422,3.2679,3.2685,3.2691,3.2724,3.2734,3.2743,0,0,0,0,0,3.1956,3.2034,3.2031,3.2052,3.2164,3.2248,3.2262,3.228,3.2253,3.2292,3.2323,3.2315,3.248,3.2441,3.2461,3.2511,3.2677,3.2684,3.269,3.2719,3.2732,3.2743,0,0,0,0,0,0,3.1977,3.2042,3.2039,3.2139,3.2188,3.2246,3.2296,3.2293,3.2351,3.2346,3.2365,3.238,3.2471,3.2501,3.2455,3.2612,3.2575,3.2586,3.259,3.2602,3.2612,3.2602,3.2428,0,0,0,0,0,3.1994,3.2057,3.211,3.2193,3.2218,3.2253,3.229,3.23,3.2351,3.2372,3.241,3.246,3.2523,3.2565,3.2626,3.2729,3.2742,3.2773,3.2783,3.2791,3.28,3.2856,3.2871,3.2717,3.2717,3.2717,0,0,3.2028,3.2071,3.211,3.2199,3.2238,3.2302,3.227,3.234,3.2388,3.2382,3.247,3.25,3.2558,3.2655,3.27,3.2682,3.2846,3.28,3.2805,3.2811,3.2865,3.288,3.2892,3.2722,3.2721,3.272,0,0,3.2124,3.2163,3.2236,3.2276,3.2336,3.2359,3.2377,3.2435,3.2455,3.2544,3.2541,3.2599,3.2708,3.2749,3.2784,3.2896,3.289,3.2916,3.2966,3.3021,3.3033,3.3043,3.3083,3.3097,3.2925,3.2925,3.2925,0,3.2158,3.2256,3.2274,3.2345,3.2384,3.2382,3.2457,3.2495,3.2572,3.2599,3.2578,3.2715,3.2753,3.286,3.2888,3.2917,3.2937,3.2908,3.3029,3.3041,3.3051,3.3089,3.3104,3.2928,3.2927,3.2927,3.2927,0,3.2296,3.2364,3.2416,3.249,3.2535,3.2607,3.2637,3.268,3.2687,3.2712,3.2802,3.2849,3.2919,3.2946,3.2952,3.3054,3.3041,3.3025,3.2987,3.3068,3.3104,3.3118,3.2931,3.293,3.293,3.2929,0,0,3.2407,3.2491,3.251,3.2543,3.261,3.2662,3.2735,3.2804,3.2841,3.2894,3.2955,3.3048,3.3033,3.3073,3.3085,3.3133,3.3219,3.3111,3.3113,3.3129,3.3333,3.3344,3.336,3.3216,3.3219,3.3221,3.3328,0,3.2508,3.2636,3.2655,3.2768,3.2831,3.2831,3.2894,3.2942,3.2967,3.3024,3.3053,3.3118,3.3094,3.3118,3.3166,3.3198,3.326,3.3191,3.3272,3.3275,3.3257,3.3379,3.3391,3.349,3.3342,3.3345,3.3346,0,3.2643,3.2701,3.282,3.2878,3.2905,3.2961,3.3026,3.3081,3.3135,3.315,3.3195,3.3201,3.3277,3.3237,3.3341,3.3293,3.3328,3.3349,3.3353,3.336,3.3315,3.3389,3.3522,3.3536,3.3369,3.3367,3.3365,0,3.2712,3.2818,3.2903,3.2932,3.3002,3.3042,3.3073,3.3125,3.3165,3.3222,3.3248,3.3314,3.3349,3.34,3.3423,3.3392,3.3525,3.3487,3.354,3.3539,3.3567,3.3564,3.3706,3.3591,3.3591,3.3591,3.359,0,3.2822,3.2895,3.2935,3.2987,3.3068,3.309,3.317,3.32,3.3246,3.3304,3.3309,3.3363,3.3391,3.345,3.3469,3.3552,3.3568,3.3583,3.3587,3.3582,3.358,3.3604,3.3597,3.3595,3.3594,3.3593,3.3592,0,3.2911,3.2941,3.3034,3.3093,3.3109,3.3167,3.3217,3.3268,3.3294,3.3367,3.3386,3.3426,3.3496,3.3524,3.361,3.3623,3.3718,3.3717,3.3699,3.37,3.375,3.3745,3.3911,3.3934,3.3805,3.3806,3.3807,0,3.2979,3.3035,3.3101,3.314,3.3172,3.3235,3.3277,3.3301,3.3343,3.341,3.3453,3.3522,3.3579,3.369,3.3727,3.3792,3.3793,3.3846,3.3802,3.3796,3.3792,3.3788,3.3794,3.3854,3.3855,3.3856,3.3857,0,3.3097,3.3109,3.3168,3.3233,3.3283,3.3335,3.3386,3.3418,3.345,3.3498,3.3569,3.3613,3.37,3.3769,3.3837,3.3869,3.3868,3.3871,3.3886,3.3881,3.3868,3.3875,3.372,3.3867,3.3866,3.3865,3.3865,3.3864,3.3177,3.3227,3.328,3.3347,3.3388,3.3435,3.3486,3.3518,3.3578,3.365,3.3661,3.3737,3.3791,3.3882,3.3917,3.3976,3.3963,3.3985,3.3991,3.3996,3.3998,3.386,3.3989,3.3989,3.3989,3.3988,3.3988,0,3.3294,3.3329,3.339,3.3461,3.3513,3.3509,3.3565,3.3609,3.3675,3.3725,3.3781,3.3863,3.393,3.3973,3.4041,3.408,3.4082,3.4097,3.4094,3.4101,3.4007,3.3987,3.4095,3.4095,3.4095,3.4095,3.4095,3.4095,3.3361,3.3445,3.3463,3.3567,3.3602,3.3676,3.3708,3.3753,3.3792,3.3884,3.3939,3.3967,3.4014,3.4085,3.4147,3.4158,3.4182,3.4198,3.4208,3.4119,3.4108,3.4097,3.4078,3.4204,3.4204,3.4297,3.4298,3.4298]},{"header":{"parameterUnit":"m.s-1","parameterCategory":1,"la1":30.2991,"la2":30.254,"lo1":-89.0895,"lo2":-89.0444,"dy":0.0017,"dx":0.0017,"nx":28,"ny":28,"refTime":"2024-04-04T09:00:00:Z","depth":0,"parameterNumber":3,"parameterNumberName":"V-component_of_WINDS"},"data":[0,0,0,0,0,0,0,0,0,0,0,0,0,0,0,0,0,0,0,0,0,0,0,0,0,0,0,0,0,0,0,0,0,0,0,0,0,0,0,0,0,0,0,0,0,0,0,0,0,0,0,0,0,0,0,0,0,0,-3.6253,-3.6255,0,-3.643,-3.6432,-3.6434,-3.6398,-3.6395,-3.6392,-3.6389,-3.657,-3.6577,-3.6585,0,0,0,0,0,0,0,0,0,0,0,0,0,-3.5887,-3.5894,-3.6253,-3.6255,-3.6258,-3.6429,-3.6432,-3.6434,-3.6399,-3.6395,-3.6391,-3.6387,-3.6567,-3.6577,-3.6586,0,0,0,0,0,0,0,0,0,0,0,0,0,-3.6053,-3.5897,-3.6253,-3.6261,-3.6263,-3.6429,-3.6432,-3.6435,-3.6399,-3.6395,-3.639,-3.6385,-3.6564,-3.6576,-3.6587,-3.6757,0,0,-3.6623,-3.6628,0,0,0,0,0,0,0,0,-3.6044,-3.6067,-3.6257,-3.626,-3.6263,-3.6387,-3.6369,-3.6543,-3.6401,-3.6348,-3.6389,-3.6383,-3.6513,-3.6529,-3.6572,-3.6765,-3.6773,-3.6624,-3.6631,-3.6636,-3.664,0,0,0,0,0,0,0,-3.6032,-3.6059,-3.6323,-3.626,-3.6264,-3.6256,-3.6274,-3.6402,-3.6455,-3.6352,-3.635,-3.6371,-3.6514,-3.6561,-3.6576,-3.6775,-3.6624,-3.6634,-3.6642,-3.6646,-3.7118,-3.7123,0,0,0,0,0,0,-3.6018,-3.605,-3.6317,-3.6328,-3.6139,-3.6266,-3.6287,-3.6352,-3.6454,-3.6465,-3.6375,-3.6369,-3.6543,-3.6563,-3.6583,-3.6789,-3.6636,-3.6647,-3.6654,-3.7112,-3.7119,-3.7125,0,0,0,0,0,0,-3.601,-3.6042,-3.631,-3.6189,-3.6222,-3.6278,-3.6352,-3.6358,-3.6405,-3.6471,-3.6481,-3.6414,-3.654,-3.6566,-3.6714,-3.6795,-3.6653,-3.6663,-3.7106,-3.7114,-3.7122,-3.7202,0,0,0,0,0,0,-3.6,-3.604,-3.6104,-3.619,-3.6229,-3.6439,-3.6356,-3.6365,-3.6426,-3.6419,-3.651,-3.652,-3.6539,-3.6697,-3.6726,-3.6808,-3.6672,-3.7099,-3.711,-3.7119,-3.7192,-3.7212,-3.7229,0,0,0,0,0,-3.5987,-3.6119,-3.6108,-3.614,-3.631,-3.6443,-3.6465,-3.6483,-3.6432,-3.6498,-3.6541,-3.6517,-3.6781,-3.6712,-3.6744,-3.6832,-3.7094,-3.7106,-3.7118,-3.7184,-3.7208,-3.7228,0,0,0,0,0,0,-3.6042,-3.6131,-3.6119,-3.6283,-3.6356,-3.6437,-3.652,-3.6508,-3.6597,-3.6587,-3.6606,-3.6626,-3.6777,-3.6819,-3.6741,-3.7002,-3.693,-3.695,-3.6969,-3.6992,-3.701,-3.6997,-3.6682,0,0,0,0,0,-3.6073,-3.6173,-3.6245,-3.6383,-3.642,-3.6464,-3.6523,-3.653,-3.6607,-3.6637,-3.6691,-3.6766,-3.6866,-3.6931,-3.7026,-3.7198,-3.7218,-3.7274,-3.7292,-3.7307,-3.7324,-3.7419,-3.7445,-3.7165,-3.7165,-3.7165,0,0,-3.6138,-3.6199,-3.6261,-3.6396,-3.6453,-3.6557,-3.649,-3.6603,-3.668,-3.6655,-3.6798,-3.684,-3.6925,-3.7086,-3.7159,-3.7125,-3.7405,-3.7322,-3.7333,-3.7343,-3.7435,-3.7461,-3.7485,-3.7174,-3.7172,-3.7171,0,0,-3.6311,-3.6366,-3.6488,-3.6547,-3.6635,-3.6663,-3.6693,-3.6776,-3.6803,-3.6947,-3.693,-3.7023,-3.7194,-3.7256,-3.731,-3.7507,-3.749,-3.7538,-3.7633,-3.7726,-3.7748,-3.7767,-3.784,-3.7865,-3.7554,-3.7554,-3.7554,0,-3.6381,-3.6537,-3.6552,-3.6667,-3.6728,-3.6709,-3.6833,-3.6889,-3.7004,-3.7046,-3.7006,-3.7222,-3.7278,-3.7454,-3.7502,-3.7546,-3.7581,-3.7528,-3.7743,-3.7763,-3.7782,-3.7851,-3.7878,-3.756,-3.7559,-3.7558,-3.7558,0,-3.662,-3.6728,-3.6816,-3.6927,-3.6997,-3.7116,-3.7151,-3.722,-3.7222,-3.7254,-3.7402,-3.7469,-3.7578,-3.762,-3.7622,-3.7797,-3.7773,-3.7738,-3.7667,-3.7814,-3.7879,-3.7905,-3.7567,-3.7565,-3.7564,-3.7562,0,0,-3.6832,-3.6951,-3.6983,-3.7034,-3.713,-3.7214,-3.7333,-3.744,-3.7499,-3.7579,-3.768,-3.7825,-3.7794,-3.7855,-3.7864,-3.7946,-3.81,-3.7901,-3.7903,-3.7937,-3.8299,-3.8326,-3.8356,-3.8089,-3.8094,-3.8098,-3.8292,0,-3.7015,-3.7224,-3.7242,-3.743,-3.7531,-3.7515,-3.7618,-3.7688,-3.7722,-3.7813,-3.7851,-3.7955,-3.7904,-3.7941,-3.8021,-3.8064,-3.8173,-3.805,-3.8184,-3.8188,-3.8165,-3.839,-3.8419,-3.8599,-3.8317,-3.8322,-3.8325,0,-3.7256,-3.7343,-3.7541,-3.7624,-3.7667,-3.776,-3.786,-3.7947,-3.8027,-3.8046,-3.8115,-3.8114,-3.8236,-3.816,-3.833,-3.8246,-3.8302,-3.8331,-3.8339,-3.8353,-3.8267,-3.8412,-3.8656,-3.8684,-3.8365,-3.8362,-3.8359,0,-3.7393,-3.756,-3.7701,-3.7744,-3.7844,-3.791,-3.7955,-3.803,-3.8093,-3.8181,-3.8222,-3.8323,-3.8379,-3.8457,-3.8483,-3.8424,-3.8653,-3.8578,-3.8674,-3.8674,-3.8724,-3.8721,-3.8983,-3.8757,-3.8757,-3.8756,-3.8755,0,-3.7596,-3.7719,-3.7764,-3.7851,-3.7987,-3.8007,-3.8142,-3.8183,-3.8251,-3.8346,-3.8337,-3.8427,-3.8455,-3.855,-3.8571,-3.871,-3.8735,-3.8755,-3.8759,-3.8757,-3.8754,-3.8794,-3.8783,-3.8763,-3.8762,-3.876,-3.8759,0,-3.7773,-3.7808,-3.7961,-3.8043,-3.8066,-3.8164,-3.8234,-3.8318,-3.8351,-3.8471,-3.8501,-3.8552,-3.8663,-3.8697,-3.883,-3.8845,-3.9008,-3.9,-3.8981,-3.8982,-3.9077,-3.9068,-3.9375,-3.9417,-3.9162,-3.9164,-3.9166,0,-3.7902,-3.7995,-3.8088,-3.8151,-3.8198,-3.8299,-3.8364,-3.8387,-3.8456,-3.8554,-3.8627,-3.8737,-3.8826,-3.9005,-3.9054,-3.9157,-3.9153,-3.9253,-3.9168,-3.9163,-3.9157,-3.9152,-3.9162,-3.927,-3.9272,-3.9275,-3.9276,0,-3.8126,-3.8139,-3.8232,-3.8333,-3.8411,-3.8491,-3.8568,-3.8621,-3.8655,-3.8732,-3.8846,-3.8915,-3.9052,-3.9162,-3.9267,-3.9313,-3.9302,-3.9303,-3.9331,-3.933,-3.9316,-3.9327,-3.9027,-3.9296,-3.9294,-3.9292,-3.9291,-3.9291,-3.8284,-3.8367,-3.8445,-3.855,-3.8611,-3.8684,-3.8767,-3.881,-3.8905,-3.9019,-3.9026,-3.915,-3.9229,-3.9368,-3.942,-3.9517,-3.9488,-3.9528,-3.9539,-3.9549,-3.9558,-3.9299,-3.9536,-3.9536,-3.9535,-3.9535,-3.9534,0,-3.8509,-3.8559,-3.8655,-3.8764,-3.8847,-3.8828,-3.8913,-3.8984,-3.9093,-3.9167,-3.9255,-3.9387,-3.9493,-3.9552,-3.9658,-3.9725,-3.9723,-3.9753,-3.9749,-3.9761,-3.9576,-3.9543,-3.9753,-3.9753,-3.9753,-3.9753,-3.9753,-3.9753,-3.8637,-3.8777,-3.8799,-3.897,-3.9019,-3.914,-3.919,-3.9258,-3.9317,-3.9464,-3.9553,-3.959,-3.9659,-3.977,-3.9868,-3.9882,-3.9923,-3.9957,-3.9968,-3.9795,-3.9773,-3.9752,-3.972,-3.9965,-3.9965,-4.0144,-4.0146,-4.0147]}]]